CW7052 Weather Reports


Display with metric or nautical units.
time (UTC)temp
F
wind
direction
speed
MPH
gust
MPH
rain 1hr
in
rain 24hr
in
rain mn
in
humidity
%
barometer
mb
20260503203250 61 72 0.0 5.0 0.00 0.00 0.00 67 1013.1
20260503202254 62 52 0.0 3.0 0.00 0.00 0.00 66 1013.1
20260503201250 62 90 0.0 3.0 0.00 0.00 0.00 65 1013.1
20260503200250 61 194 0.0 1.0 0.00 0.00 0.00 69 1013.2
20260503195253 60 191 0.0 6.0 0.00 0.00 0.00 70 1013.2
20260503194250 60 70 0.0 4.0 0.00 0.00 0.00 70 1013.3
20260503193254 60 40 0.0 4.0 0.00 0.00 0.00 68 1013.2
20260503192250 60 56 2.0 9.0 0.00 0.00 0.00 67 1013.3
20260503191250 61 164 0.0 0.0 0.00 0.00 0.00 70 1013.2
20260503190250 61 120 1.0 1.0 0.00 0.00 0.00 69 1013.2
20260503185251 61 145 0.0 3.0 0.00 0.00 0.00 67 1013.2
20260503184250 61 96 0.0 1.0 0.00 0.00 0.00 69 1013.1
20260503183250 61 57 0.0 3.0 0.00 0.00 0.00 69 1013.1
20260503182250 60 196 0.0 0.0 0.00 0.00 0.00 74 1013.1
20260503181251 59 196 0.0 0.0 0.00 0.00 0.00 74 1013.1
20260503180250 59 196 0.0 1.0 0.00 0.00 0.00 73 1013.1
20260503175250 59 179 0.0 2.0 0.00 0.00 0.00 73 1013.2
20260503174253 58 73 0.0 3.0 0.00 0.00 0.00 75 1013.3
20260503173250 58 150 0.0 1.0 0.00 0.00 0.00 79 1013.2
20260503172250 57 140 0.0 0.0 0.00 0.00 0.00 82 1013.2
20260503171253 57 140 0.0 1.0 0.00 0.00 0.00 82 1013.3
20260503170250 57 135 0.0 1.0 0.00 0.00 0.00 84 1013.3
20260503150250 53 216 0.0 1.0 0.00 0.00 0.00 91 1012.9
20260503140250 53 316 0.0 0.0 0.00 0.00 0.00 92 1012.0
20260503131251 53 316 0.0 0.0 0.00 0.00 0.00 91 1011.6
20260503130250 53 316 0.0 0.0 0.00 0.00 0.00 91 1011.6
20260503110251 53 315 0.0 0.0 0.00 0.00 0.00 89 1011.4
20260503100254 53 315 0.0 0.0 0.00 0.00 0.00 89 1011.3
20260503090250 54 315 0.0 0.0 0.00 0.00 0.00 87 1011.8
20260503081250 54 315 0.0 0.0 0.00 0.00 0.00 86 1012.3
20260503080253 54 315 0.0 0.0 0.00 0.00 0.00 86 1012.3
20260503072250 54 315 0.0 0.0 0.00 0.00 0.00 86 1012.2
20260503071250 54 315 0.0 0.0 0.00 0.00 0.00 86 1012.2
20260503070253 54 315 0.0 0.0 0.00 0.00 0.00 86 1012.3
20260503060250 54 315 0.0 0.0 0.00 0.00 0.00 85 1012.3
20260503054250 55 315 0.0 0.0 0.00 0.00 0.00 85 1012.6
20260503053253 55 315 0.0 0.0 0.00 0.00 0.00 85 1012.6
20260503052250 55 315 0.0 0.0 0.00 0.00 0.00 85 1012.7
20260503051250 55 315 0.0 0.0 0.00 0.00 0.00 84 1012.7
20260503050250 55 315 0.0 0.0 0.00 0.00 0.00 84 1012.7
20260503045251 55 315 0.0 0.0 0.00 0.00 0.00 84 1012.7
20260503044250 55 315 0.0 1.0 0.00 0.00 0.00 84 1012.5
20260503043250 55 315 0.0 0.0 0.00 0.00 0.00 84 1012.4
20260503042250 55 315 0.0 0.0 0.00 0.00 0.00 83 1012.4
20260503041250 55 315 0.0 0.0 0.00 0.00 0.00 84 1012.2
20260503040251 56 315 0.0 0.0 0.00 0.00 0.00 84 1012.2
20260503035250 56 315 0.0 0.0 0.00 0.00 0.00 84 1012.0
20260503034254 56 315 0.0 0.0 0.00 0.00 0.00 84 1011.9
20260503033253 56 315 0.0 0.0 0.00 0.00 0.00 84 1011.7
20260503032253 56 315 0.0 0.0 0.00 0.00 0.00 84 1011.5
20260503031250 57 315 0.0 0.0 0.00 0.00 0.00 84 1011.4
20260503030250 57 315 0.0 0.0 0.00 0.00 0.00 83 1011.4
20260503025251 57 315 0.0 0.0 0.00 0.00 0.00 83 1011.3
20260503024250 57 315 0.0 0.0 0.00 0.00 0.00 82 1011.2
20260503023250 58 315 0.0 0.0 0.00 0.00 0.00 82 1011.1
20260503022252 58 315 0.0 0.0 0.00 0.00 0.00 81 1011.1
20260503021250 59 315 0.0 0.0 0.00 0.00 0.00 81 1011.0
20260503020250 59 315 0.0 0.0 0.00 0.00 0.00 81 1011.1
20260503015250 60 315 0.0 0.0 0.00 0.00 0.00 80 1011.1
20260503014250 60 315 0.0 0.0 0.00 0.00 0.00 79 1011.1
20260503013250 61 315 0.0 0.0 0.00 0.00 0.00 79 1011.0
20260503012251 61 315 0.0 1.0 0.00 0.00 0.00 78 1011.1
20260503011250 61 315 0.0 0.0 0.00 0.00 0.00 78 1011.0
20260503010250 61 315 0.0 0.0 0.00 0.00 0.00 77 1011.0
20260503005250 62 315 0.0 1.0 0.00 0.00 0.00 78 1011.0
20260503004253 62 315 0.0 2.0 0.00 0.00 0.00 76 1011.0
20260503003250 63 271 0.0 0.0 0.00 0.00 0.00 75 1010.9
20260503002250 64 133 0.0 1.0 0.00 0.00 0.00 74 1011.0
20260503001250 64 350 0.0 1.0 0.00 0.00 0.00 73 1010.9
20260503000251 65 273 0.0 1.0 0.00 0.00 0.00 72 1010.9
20260502235250 66 248 0.0 1.0 0.00 0.00 0.00 71 1010.8
20260502234253 66 216 0.0 1.0 0.00 0.00 0.00 71 1010.8
20260502233254 66 166 0.0 3.0 0.00 0.00 0.00 70 1010.8
20260502232250 67 200 0.0 4.0 0.00 0.00 0.00 68 1011.0
20260502231251 68 305 0.0 5.0 0.00 0.00 0.00 68 1011.0
20260502230250 69 207 0.0 3.0 0.00 0.00 0.00 66 1011.2
20260502225251 70 140 0.0 4.0 0.00 0.00 0.00 65 1011.3
20260502224251 70 173 4.0 4.0 0.00 0.00 0.00 64 1011.5
20260502223253 69 158 0.0 5.0 0.00 0.00 0.00 65 1011.7
20260502222250 70 162 0.0 6.0 0.00 0.00 0.00 63 1011.9
20260502221254 71 353 0.0 1.0 0.00 0.00 0.00 64 1012.0
20260502220253 70 44 0.0 1.0 0.00 0.00 0.00 66 1012.2
20260502215250 69 157 0.0 6.0 0.00 0.00 0.00 67 1012.4
20260502214250 68 62 0.0 3.0 0.00 0.00 0.00 64 1012.6
20260502213250 68 140 0.0 1.0 0.00 0.00 0.00 67 1012.7
20260502212250 67 193 0.0 2.0 0.00 0.00 0.00 68 1012.8
20260502211253 65 167 0.0 6.0 0.00 0.00 0.00 72 1012.9
20260502210253 65 189 2.0 4.0 0.00 0.00 0.00 71 1013.1
20260502205253 64 176 4.0 4.0 0.00 0.00 0.00 74 1013.1
20260502204253 63 246 0.0 2.0 0.00 0.00 0.00 76 1013.5